Regional Weather Roundup
Issued by NWS

Home | Current Version | Previous Version | Graphics & Text | Print | Product List | Glossary On
Versions: 1 2 3 4 5 6 7 8 9 10 11 12 13 14 15 16 17 18 19 20 21 22 23 24 25 26 27 28 29 30 31 32 33 34 35 36 37 38 39 40 41 42 43 44 45 46 47 48 49 50
000
ASUS43 KLSX 200907
RWRMO

WEATHER SUMMARY FOR MISSOURI
NATIONAL WEATHER SERVICE SPRINGFIELD MO
400 AM CDT FRI APR 20 2018

NOTE: "FAIR" INDICATES FEW OR NO CLOUDS BELOW 12,000 FEET WITH NO
       SIGNIFICANT WEATHER AND/OR OBSTRUCTIONS TO VISIBILITY.
       CURRENT SKY AND/OR WEATHER CONDITIONS ARE NOT AVAILABLE FOR
       CHILLICOTHE AND FARMINGTON.

MOZ001>031-035>038-043-044-053-054-201000-
...NORTHERN AND WESTERN MISSOURI...

CITY           SKY/WX    TMP DP  RH WIND       PRES   REMARKS
KANSAS CTY INT CLEAR     39  29  67 E5        30.41S
KANSAS C DTWN  CLEAR     42  30  62 E3        30.41S
LEE`S SUMMIT   CLOUDY    40  30  67 E5        30.41S
ST JOSEPH      CLOUDY    32  27  81 CALM      30.43R
CHILLICOTHE      N/A     33  27  78 NW3       30.46R
KIRKSVILLE     CLEAR     35  26  69 NE6       30.46R

$$
MOZ066>068-077>081-088>096-101>105-201000-
...SOUTHWEST MISSOURI...

CITY           SKY/WX    TMP DP  RH WIND       PRES   REMARKS
SPRINGFIELD    CLOUDY    40  30  67 E8        30.37S
JOPLIN         CLOUDY    41  32  70 E8        30.37R
BRANSON        CLEAR     39  32  75 SE6       30.38S

$$
MOZ032>034-039>042-045>050-055>058-069>072-201000-
...CENTRAL MISSOURI...

CITY           SKY/WX    TMP DP  RH WIND       PRES   REMARKS
COLUMBIA       CLEAR     40  28  62 E6        30.42S
JEFFERSON CITY CLEAR     35  29  78 CALM      30.44R
ROLLA          CLEAR     32  26  78 E3        30.41S
SEDALIA        CLOUDY    39  31  72 CALM      30.43R
WHITEMAN AFB   PTCLDY    38  28  67 CALM      30.38R
WARRENSBURG    CLEAR     34  30  86 CALM      30.42S
OSAGE BEACH    CLEAR     32  28  85 CALM      30.42S

$$
MOZ051-052-059>065-201000-
...EAST CENTRAL MISSOURI...

CITY           SKY/WX    TMP DP  RH WIND       PRES   REMARKS
ST LOUIS INTL  CLEAR     42  28  57 NE6       30.44R
SPIRIT OF STL  CLEAR     32  30  92 CALM      30.44R
ST CHARLES     CLEAR     37  28  70 E6        30.44S

$$
MOZ072>076-082>087-097>100-106>115-201000-
...SOUTH CENTRAL AND SOUTHEAST MISSOURI...

CITY           SKY/WX    TMP DP  RH WIND       PRES   REMARKS
CAPE GIRARDEAU FAIR      33  31  92 W3        30.41R
FARMINGTON     CLEAR     32  29  88 CALM      30.42S
POPLAR BLUFF   FAIR      38  34  85 NW5       30.41R
WEST PLAINS    CLEAR     34  28  79 NE3       30.39F

$$




USA.gov is the U.S. government's official web portal to all federal, state and local government web resources and services.